2012-01-16, 01:00:04,VALID,6.24261,VALID,70,VALID,-25.6348,VALID,0.0377667,VALID,20.1708,
2012-01-16, 12:57:04,VALID,914.074,VALID,0,VALID,64.8905,VALID,663.019,VALID,25.5894,INVALID,360,INVALID,0,
2012-01-16, 12:58:04,VALID,914.037,VALID,0,VALID,65.5156,VALID,777.444,VALID,25.6089,VALID,216,VALID,1.74375,
2012-01-16, 12:59:04,VALID,914.067,VALID,0,VALID,66.6134,VALID,953.11,VALID,25.6675,VALID,254,VALID,1.24375,
2012-01-16, 13:00:04,VALID,914.049,VALID,0,VALID,65.7291,VALID,961.383,VALID,25.7671,VALID,271,VALID,2.24297,
2012-01-16, 13:01:04,VALID,914.073,VALID,0,VALID,63.4192,VALID,920.126,VALID,25.648,VALID,236,VALID,3.86953,
2012-01-16, 13:02:04,VALID,914.051,VALID,0,VALID,65.165,VALID,917.547,VALID,25.4722,VALID,226,VALID,2.87969,
2012-01-16, 13:03:04,VALID,914.039,VALID,0,VALID,67.0708,VALID,968.367,VALID,25.4351,VALID,227,VALID,2.51602,
2012-01-16, 13:04:04,VALID,913.986,VALID,0,VALID,65.7672,VALID,540.107,VALID,25.687,VALID,264,VALID,1.74414,
2012-01-16, 13:05:04,VALID,913.988,VALID,0,VALID,64.0824,VALID,373.895,VALID,25.6284,VALID,256,VALID,4.49453,
2012-01-16, 13:06:04,VALID,913.931,VALID,0,VALID,67.208,VALID,464.79,VALID,25.2183,VALID,239,VALID,4.30391,
2012-01-16, 13:07:04,VALID,913.982,VALID,0,VALID,67.574,VALID,658.829,VALID,25.1031,VALID,196,VALID,2.65,
2012-01-16, 13:08:04,VALID,913.998,VALID,0,VALID,67.0403,VALID,523.561,VALID,25.1402,VALID,276,VALID,2.13281,
2012-01-16, 13:09:04,VALID,913.979,VALID,0,VALID,67.6121,VALID,595.331,VALID,25.2379,VALID,257,VALID,2.49336,
2012-01-16, 13:10:04,VALID,913.953,VALID,0,VALID,68.969,VALID,495.733,VALID,25.3355,VALID,253,VALID,0.416797,
2012-01-16, 13:11:04,VALID,913.898,VALID,0,VALID,69.5484,VALID,675.59,VALID,25.6089,VALID,234,VALID,0.469141,
2012-01-16, 13:12:04,VALID,913.9,VALID,0,VALID,70.4404,VALID,410.425,VALID,25.9389,VALID,236,VALID,0.994922,
2012-01-16, 13:13:04,VALID,913.951,VALID,0,VALID,64.6313,VALID,692.566,VALID,25.9409,VALID,254,VALID,2.34805,
2012-01-16, 13:14:04,VALID,913.951,VALID,0,VALID,64.8448,VALID,470.055,VALID,25.687,VALID,243,VALID,1.73281,
2012-01-16, 13:15:04,VALID,913.901,VALID,0,VALID,67.6654,VALID,552.677,VALID,25.7046,VALID,52,VALID,0.489844,
2012-01-16, 13:16:04,VALID,913.955,VALID,0,VALID,68.4354,VALID,457.055,VALID,25.9604,VALID,356,VALID,0.86875,
2012-01-16, 13:17:04,VALID,913.88,VALID,0,VALID,70.3717,VALID,307.067,VALID,26.0952,VALID,20,VALID,0.584375,
2012-01-16, 13:18:04,VALID,913.822,VALID,0,VALID,70.5852,VALID,294.281,VALID,26.1538,VALID,164,VALID,0.821484,
2012-01-16, 13:19:04,VALID,913.841,VALID,0,VALID,70.448,VALID,287.835,VALID,26.271,VALID,158,VALID,0.532422,
2012-01-16, 13:20:04,VALID,913.836,VALID,0,VALID,69.7848,VALID,290.306,VALID,26.2905,VALID,2,VALID,0.678516,
2012-01-16, 13:21:04,VALID,913.829,VALID,0,VALID,71.7516,VALID,297.719,VALID,26.1342,VALID,328,VALID,0.282422,
2012-01-16, 13:22:04,VALID,913.818,VALID,0,VALID,73.3296,VALID,345.746,VALID,26.0757,VALID,328,VALID,0.752344,
2012-01-16, 13:23:04,VALID,913.797,VALID,0,VALID,73.9319,VALID,416.334,VALID,26.1342,VALID,328,VALID,0.533203,
2012-01-16, 13:24:04,VALID,913.792,VALID,0,VALID,70.913,VALID,428.046,VALID,26.0561,VALID,328,VALID,1.1043,
2012-01-16, 13:25:04,VALID,913.803,VALID,0,VALID,73.3525,VALID,276.124,VALID,25.7437,VALID,328,VALID,0.838281,
2012-01-16, 13:26:04,VALID,913.789,VALID,0,VALID,74.4655,VALID,274.19,VALID,25.5874,VALID,20,VALID,0.480469,
2012-01-16, 13:27:04,VALID,913.818,VALID,0,VALID,74.7019,VALID,333.82,VALID,25.648,VALID,20,VALID,0.157031,
2012-01-16, 13:28:04,VALID,913.784,VALID,0,VALID,72.6816,VALID,402.797,VALID,25.7261,VALID,20,VALID,0.703516,
2012-01-16, 13:29:04,VALID,913.725,VALID,0,VALID,75.2736,VALID,1039.82,VALID,25.5698,VALID,289,VALID,1.0125,
2012-01-16, 13:30:04,VALID,913.714,VALID,0,VALID,74.8772,VALID,750.154,VALID,25.5503,VALID,342,VALID,1.65156,
2012-01-16, 13:31:04,VALID,913.682,VALID,0,VALID,75.2736,VALID,709.112,VALID,25.5523,VALID,23,VALID,2.07461,
2012-01-16, 13:32:04,VALID,913.723,VALID,0,VALID,75.3956,VALID,511.205,VALID,25.689,VALID,28,VALID,1.06719,
2012-01-16, 13:33:04,VALID,913.704,VALID,0,VALID,74.9992,VALID,362.292,VALID,25.9038,VALID,28,VALID,0.327344,
2012-01-16, 13:34:04,VALID,913.7,VALID,0,VALID,75.2812,VALID,333.175,VALID,25.9624,VALID,349,VALID,0.796875,
2012-01-16, 13:35:04,VALID,913.662,VALID,0,VALID,74.7476,VALID,359.606,VALID,25.9624,VALID,355,VALID,0.991016,
2012-01-16, 13:36:04,VALID,913.63,VALID,0,VALID,73.383,VALID,341.985,VALID,25.9234,VALID,327,VALID,0.411328,
2012-01-16, 13:37:04,VALID,913.642,VALID,0,VALID,73.4974,VALID,259.255,VALID,25.7847,VALID,327,VALID,0.948828,
2012-01-16, 13:38:04,VALID,913.607,VALID,0,VALID,73.7413,VALID,232.503,VALID,25.6089,VALID,327,VALID,1.56445,
2012-01-16, 13:39:04,VALID,913.582,VALID,0,VALID,74.9382,VALID,242.602,VALID,25.3374,VALID,327,VALID,1.29062,
2012-01-16, 13:40:04,VALID,913.597,VALID,0,VALID,76.318,VALID,233.255,VALID,25.1031,VALID,339,VALID,0.760547,
2012-01-16, 13:41:04,VALID,913.56,VALID,0,VALID,77.9037,VALID,217.891,VALID,24.9255,VALID,36,VALID,0.807422,
2012-01-16, 13:42:04,VALID,913.587,VALID,0,VALID,78.1553,VALID,228.312,VALID,24.8102,VALID,26,VALID,0.534766,
2012-01-16, 13:43:04,VALID,913.533,VALID,0,VALID,77.3014,VALID,260.115,VALID,24.7516,VALID,26,VALID,0.534375,
2012-01-16, 13:44:04,VALID,913.558,VALID,0,VALID,79.8248,VALID,346.498,VALID,24.7516,VALID,64,VALID,1.06914,
2012-01-16, 13:45:04,VALID,913.566,VALID,0,VALID,79.5122,VALID,449.856,VALID,24.945,VALID,55,VALID,1.05977,
2012-01-16, 13:46:04,VALID,913.532,VALID,0,VALID,76.8745,VALID,1084.73,VALID,25.2203,VALID,355,VALID,0.397266,
2012-01-16, 13:47:04,VALID,913.513,VALID,0,VALID,75.8835,VALID,383.028,VALID,25.5113,VALID,355,VALID,1.17891,
2012-01-16, 13:48:04,VALID,913.5,VALID,0,VALID,75.4261,VALID,298.901,VALID,25.7866,VALID,355,VALID,0.220703,
2012-01-16, 13:49:04,VALID,913.481,VALID,0,VALID,73.4669,VALID,275.264,VALID,26.0406,VALID,355,VALID,0.585156,
2012-01-16, 13:50:04,VALID,913.526,VALID,0,VALID,72.7579,VALID,256.569,VALID,26.0601,VALID,355,VALID,0.535547,
2012-01-16, 13:51:04,VALID,913.559,VALID,0,VALID,73.1467,VALID,270.322,VALID,25.9038,VALID,250,VALID,1.50859,
2012-01-16, 13:52:04,VALID,913.501,VALID,0,VALID,74.7628,VALID,340.374,VALID,25.6694,VALID,237,VALID,0.678516,
2012-01-16, 13:53:04,VALID,913.51,VALID,0,VALID,74.2749,VALID,448.03,VALID,25.5718,VALID,267,VALID,1.13398,
2012-01-16, 13:54:04,VALID,913.44,VALID,0,VALID,73.383,VALID,444.054,VALID,25.2788,VALID,268,VALID,1.00352,
2012-01-16, 13:55:04,VALID,913.432,VALID,0,VALID,74.9992,VALID,424.715,VALID,25.2183,VALID,297,VALID,0.914844,
2012-01-16, 13:56:04,VALID,913.41,VALID,0,VALID,72.5368,VALID,398.822,VALID,25.2398,VALID,215,VALID,1.2207,
2012-01-16, 13:57:04,VALID,913.408,VALID,0,VALID,73.2839,VALID,413.756,VALID,25.2965,VALID,201,VALID,1.15781,
2012-01-16, 13:58:04,VALID,913.384,VALID,0,VALID,75.2736,VALID,519.156,VALID,25.3746,VALID,214,VALID,1.15234,
2012-01-16, 13:59:04,VALID,913.395,VALID,0,VALID,76.5543,VALID,537.313,VALID,25.2945,VALID,252,VALID,1.11758,
2012-01-16, 14:00:04,VALID,913.415,VALID,0,VALID,76.318,VALID,561.058,VALID,25.275,VALID,269,VALID,0.960156,
2012-01-16, 14:01:04,VALID,913.388,VALID,0,VALID,75.8454,VALID,570.298,VALID,25.3922,VALID,272,VALID,1.2793,
2012-01-16, 14:02:04,VALID,913.393,VALID,0,VALID,73.1924,VALID,997.806,VALID,25.4312,VALID,219,VALID,1.425,
2012-01-16, 14:03:04,VALID,913.372,VALID,0,VALID,71.3552,VALID,964.929,VALID,25.687,VALID,209,VALID,1.325,
2012-01-16, 14:04:04,VALID,913.401,VALID,0,VALID,72.0565,VALID,897.349,VALID,25.8413,VALID,248,VALID,1.79414,
2012-01-16, 14:05:04,VALID,913.351,VALID,0,VALID,65.7901,VALID,855.124,VALID,25.8237,VALID,262,VALID,2.9668,
2012-01-16, 14:06:04,VALID,913.353,VALID,0,VALID,68.3058,VALID,823.214,VALID,25.7456,VALID,260,VALID,2.06445,
2012-01-16, 14:07:04,VALID,913.278,VALID,0,VALID,65.7215,VALID,813.652,VALID,25.7066,VALID,264,VALID,2.98398,
2012-01-16, 14:08:04,VALID,913.329,VALID,0,VALID,68.1915,VALID,757.997,VALID,25.4703,VALID,248,VALID,2.80859,
2012-01-16, 14:09:04,VALID,913.278,VALID,0,VALID,70.1735,VALID,711.153,VALID,25.4898,VALID,233,VALID,1.76016,
2012-01-16, 14:10:04,VALID,913.263,VALID,0,VALID,69.7771,VALID,745.964,VALID,25.8022,VALID,248,VALID,1.01836,
2012-01-16, 14:11:04,VALID,913.22,VALID,0,VALID,68.1762,VALID,777.874,VALID,26.1538,VALID,216,VALID,1.96016,
2012-01-16, 14:12:04,VALID,913.251,VALID,0,VALID,66.3161,VALID,829.123,VALID,26.2925,VALID,262,VALID,2.93203,
2012-01-16, 14:13:04,VALID,913.227,VALID,0,VALID,65.6681,VALID,891.439,VALID,26.0581,VALID,221,VALID,1.84492,
2012-01-16, 14:14:04,VALID,913.189,VALID,0,VALID,66.2322,VALID,364.978,VALID,26.1362,VALID,194,VALID,1.6625,
2012-01-16, 14:15:04,VALID,913.263,VALID,0,VALID,68.3287,VALID,400.326,VALID,26.1753,VALID,242,VALID,1.95977,
2012-01-16, 14:16:04,VALID,913.265,VALID,0,VALID,65.386,VALID,471.559,VALID,26.0757,VALID,201,VALID,2.41016,
2012-01-16, 14:17:04,VALID,913.202,VALID,0,VALID,66.4305,VALID,1025.63,VALID,26.0581,VALID,200,VALID,3.02578,
2012-01-16, 14:18:04,VALID,913.139,VALID,0,VALID,67.0098,VALID,905.084,VALID,25.9389,VALID,188,VALID,3.19609,
2012-01-16, 14:19:04,VALID,913.188,VALID,0,VALID,68.7861,VALID,891.009,VALID,26.0171,VALID,221,VALID,1.30156,
2012-01-16, 14:20:04,VALID,913.194,VALID,0,VALID,64.4865,VALID,406.665,VALID,26.0757,VALID,263,VALID,2.79805,
2012-01-16, 14:21:04,VALID,913.197,VALID,0,VALID,65.6986,VALID,430.839,VALID,25.8804,VALID,266,VALID,1.24023,
2012-01-16, 14:22:04,VALID,913.187,VALID,0,VALID,66.9412,VALID,378.408,VALID,25.8218,VALID,253,VALID,1.33047,
2012-01-16, 14:23:04,VALID,913.152,VALID,0,VALID,66.9717,VALID,1027.24,VALID,25.646,VALID,240,VALID,3.56953,
2012-01-16, 14:24:04,VALID,913.155,VALID,0,VALID,67.208,VALID,1008.66,VALID,25.5679,VALID,250,VALID,3.42734,
2012-01-16, 14:25:04,VALID,913.156,VALID,0,VALID,66.6287,VALID,750.154,VALID,25.6265,VALID,275,VALID,2.34687,
2012-01-16, 14:26:04,VALID,913.131,VALID,0,VALID,66.7201,VALID,718.781,VALID,25.7241,VALID,291,VALID,1.47305,
2012-01-16, 14:27:04,VALID,913.139,VALID,0,VALID,65.1345,VALID,352.622,VALID,25.7456,VALID,208,VALID,4.30703,
2012-01-16, 14:28:04,VALID,913.119,VALID,0,VALID,63.9681,VALID,382.491,VALID,25.7476,VALID,250,VALID,2.39375,
2012-01-16, 14:29:04,VALID,913.161,VALID,0,VALID,65.2031,VALID,400.541,VALID,25.5308,VALID,250,VALID,3.26484,
2012-01-16, 14:30:04,VALID,913.132,VALID,0,VALID,67.1242,VALID,334.035,VALID,25.3765,VALID,257,VALID,1.03672,
2012-01-16, 14:31:04,VALID,913.154,VALID,0,VALID,66.8192,VALID,343.382,VALID,25.3179,VALID,264,VALID,2.61016,
2012-01-16, 14:32:04,VALID,913.188,VALID,0,VALID,68.1991,VALID,813.007,VALID,25.236,VALID,202,VALID,1.77539,
2012-01-16, 14:33:04,VALID,913.138,VALID,0,VALID,68.2296,VALID,797.536,VALID,25.1988,VALID,260,VALID,1.73984,
2012-01-16, 14:34:04,VALID,913.092,VALID,0,VALID,68.8852,VALID,896.919,VALID,25.2984,VALID,285,VALID,1.23633,
2012-01-16, 14:35:04,VALID,913.13,VALID,0,VALID,68.0695,VALID,878.331,VALID,25.5542,VALID,255,VALID,2.86016,
2012-01-16, 14:36:04,VALID,913.134,VALID,0,VALID,66.4228,VALID,416.657,VALID,25.4585,VALID,246,VALID,3.96211,
2012-01-16, 14:37:04,VALID,913.136,VALID,0,VALID,66.8726,VALID,445.021,VALID,25.2203,VALID,256,VALID,2.59844,
2012-01-16, 14:38:04,VALID,913.089,VALID,0,VALID,67.147,VALID,392.268,VALID,25.0621,VALID,251,VALID,2.77383,
2012-01-16, 14:39:04,VALID,913.052,VALID,0,VALID,68.8013,VALID,364.333,VALID,25.0231,VALID,296,VALID,1.57734,
2012-01-16, 14:40:04,VALID,913.081,VALID,0,VALID,67.0251,VALID,332.208,VALID,25.1655,VALID,245,VALID,2.78242,
2012-01-16, 14:41:04,VALID,913.003,VALID,0,VALID,69.2816,VALID,317.059,VALID,24.9878,VALID,325,VALID,1.67969,
2012-01-16, 14:42:04,VALID,912.966,VALID,0,VALID,68.9995,VALID,325.654,VALID,24.8259,VALID,250,VALID,3.18711,
2012-01-16, 14:43:04,VALID,912.99,VALID,0,VALID,69.9372,VALID,348.324,VALID,24.9274,VALID,217,VALID,1.78828,
2012-01-16, 14:44:04,VALID,913.021,VALID,0,VALID,70.1583,VALID,335.324,VALID,24.9626,VALID,205,VALID,1.83164,
2012-01-16, 14:45:04,VALID,912.999,VALID,0,VALID,70.5852,VALID,302.232,VALID,25.1402,VALID,243,VALID,1.15508,
2012-01-16, 14:46:04,VALID,913.058,VALID,0,VALID,71.157,VALID,299.653,VALID,25.2574,VALID,244,VALID,0.809375,
2012-01-16, 14:47:04,VALID,913.034,VALID,0,VALID,67.9475,VALID,369.705,VALID,25.3141,VALID,247,VALID,1.18672,
2012-01-16, 14:48:04,VALID,913.009,VALID,0,VALID,67.1166,VALID,365.407,VALID,25.3179,VALID,247,VALID,1.04531,
2012-01-16, 14:49:04,VALID,913.005,VALID,0,VALID,67.7493,VALID,380.019,VALID,25.275,VALID,246,VALID,1.04141,
2012-01-16, 14:50:04,VALID,913.018,VALID,0,VALID,66.9641,VALID,354.663,VALID,25.2379,VALID,256,VALID,3.36602,
2012-01-16, 14:51:04,VALID,913.045,VALID,0,VALID,67.9018,VALID,321.034,VALID,25.0407,VALID,263,VALID,1.83242,
2012-01-16, 14:52:04,VALID,913.016,VALID,0,VALID,67.9704,VALID,303.199,VALID,24.8845,VALID,242,VALID,2.51953,
2012-01-16, 14:53:04,VALID,913.039,VALID,0,VALID,67.9704,VALID,301.695,VALID,24.7674,VALID,261,VALID,3.08555,
2012-01-16, 14:54:04,VALID,913.024,VALID,0,VALID,68.4659,VALID,323.613,VALID,24.6716,VALID,271,VALID,1.23047,
2012-01-16, 14:55:04,VALID,913.001,VALID,0,VALID,69.1825,VALID,367.341,VALID,24.7497,VALID,270,VALID,0.547266,
2012-01-16, 14:56:04,VALID,913.014,VALID,0,VALID,68.8471,VALID,373.573,VALID,24.9645,VALID,270,VALID,0.442187,
2012-01-16, 14:57:04,VALID,913.027,VALID,0,VALID,68.809,VALID,377.441,VALID,25.0974,VALID,254,VALID,2.09766,
2012-01-16, 14:58:04,VALID,913.056,VALID,0,VALID,68.3439,VALID,341.341,VALID,24.984,VALID,260,VALID,2.29883,
2012-01-16, 14:59:04,VALID,913.061,VALID,0,VALID,67.856,VALID,308.034,VALID,24.8064,VALID,262,VALID,2.04805,
2012-01-16, 15:00:04,VALID,913.098,VALID,0,VALID,70.8444,VALID,291.058,VALID,24.7283,VALID,266,VALID,1.55781,
2012-01-16, 15:01:04,VALID,913.057,VALID,0,VALID,68.748,VALID,290.628,VALID,24.7479,VALID,240,VALID,1.62266,
2012-01-16, 15:02:04,VALID,913.027,VALID,0,VALID,68.4659,VALID,300.083,VALID,24.7163,VALID,250,VALID,2.39453,
2012-01-16, 15:03:04,VALID,913.068,VALID,0,VALID,69.2359,VALID,305.563,VALID,24.5564,VALID,235,VALID,1.76094,
2012-01-16, 15:04:04,VALID,913.051,VALID,0,VALID,69.5408,VALID,317.811,VALID,24.5722,VALID,226,VALID,2.05156,
2012-01-16, 15:05:04,VALID,913.067,VALID,0,VALID,68.9614,VALID,321.786,VALID,24.6502,VALID,208,VALID,0.554297,
2012-01-16, 15:06:04,VALID,913.076,VALID,0,VALID,68.4659,VALID,319.208,VALID,24.8241,VALID,241,VALID,1.41133,
2012-01-16, 15:07:04,VALID,913.074,VALID,0,VALID,69.1825,VALID,299.976,VALID,25.0036,VALID,242,VALID,1.25117,
2012-01-16, 15:08:04,VALID,913.049,VALID,0,VALID,67.5206,VALID,327.373,VALID,24.984,VALID,243,VALID,2.18867,
2012-01-16, 15:09:04,VALID,912.999,VALID,0,VALID,66.7354,VALID,336.613,VALID,24.9664,VALID,187,VALID,0.776953,
2012-01-16, 15:10:04,VALID,913.045,VALID,0,VALID,67.4215,VALID,328.018,VALID,25.0017,VALID,260,VALID,1.45391,
2012-01-16, 15:11:04,VALID,913.021,VALID,0,VALID,67.7417,VALID,323.398,VALID,24.9059,VALID,235,VALID,1.45781,
2012-01-16, 15:12:04,VALID,913.038,VALID,0,VALID,68.9233,VALID,309.216,VALID,24.8864,VALID,279,VALID,0.832812,
2012-01-16, 15:13:04,VALID,913.045,VALID,0,VALID,67.0403,VALID,347.142,VALID,24.945,VALID,283,VALID,2.16211,
2012-01-16, 15:14:04,VALID,913.056,VALID,0,VALID,68.1762,VALID,287.405,VALID,24.9431,VALID,304,VALID,0.482812,
2012-01-16, 15:15:04,VALID,913.025,VALID,0,VALID,68.0085,VALID,272.901,VALID,25.0212,VALID,234,VALID,1.47539,
2012-01-16, 15:16:04,VALID,913.019,VALID,0,VALID,67.3148,VALID,258.181,VALID,24.9626,VALID,241,VALID,1.41211,
2012-01-16, 15:17:04,VALID,913.037,VALID,0,VALID,68.9081,VALID,251.95,VALID,24.9431,VALID,287,VALID,0.444141,
2012-01-16, 15:18:04,VALID,913.037,VALID,0,VALID,67.3834,VALID,255.388,VALID,24.9626,VALID,224,VALID,1.92695,
2012-01-16, 15:19:04,VALID,913.002,VALID,0,VALID,67.2538,VALID,297.827,VALID,24.9255,VALID,240,VALID,1.34805,
2012-01-16, 15:20:04,VALID,913.031,VALID,0,VALID,67.6807,VALID,296.108,VALID,24.8259,VALID,253,VALID,1.61953,
2012-01-16, 15:21:04,VALID,913.038,VALID,0,VALID,68.5116,VALID,296.645,VALID,24.6502,VALID,262,VALID,2.14844,
2012-01-16, 15:22:04,VALID,913.046,VALID,0,VALID,69.1977,VALID,282.248,VALID,24.5722,VALID,254,VALID,0.621484,
2012-01-16, 15:23:04,VALID,913.07,VALID,0,VALID,70.0592,VALID,284.612,VALID,24.693,VALID,231,VALID,0.938672,
2012-01-16, 15:24:04,VALID,913.058,VALID,0,VALID,68.0466,VALID,271.934,VALID,24.7888,VALID,268,VALID,1.2457,
2012-01-16, 15:25:04,VALID,913.026,VALID,0,VALID,68.0085,VALID,259.578,VALID,24.7535,VALID,251,VALID,2.07656,
2012-01-16, 15:26:04,VALID,912.997,VALID,0,VALID,68.6412,VALID,242.602,VALID,24.6559,VALID,248,VALID,0.865625,
2012-01-16, 15:27:04,VALID,912.967,VALID,0,VALID,69.1673,VALID,236.8,VALID,24.6521,VALID,248,VALID,0.394141,
2012-01-16, 15:28:04,VALID,912.975,VALID,0,VALID,68.6107,VALID,248.834,VALID,24.7516,VALID,206,VALID,1.73398,
2012-01-16, 15:29:04,VALID,912.988,VALID,0,VALID,69.2282,VALID,309.001,VALID,24.7088,VALID,243,VALID,0.966016,
2012-01-16, 15:30:04,VALID,912.956,VALID,0,VALID,68.2677,VALID,379.59,VALID,24.6716,VALID,272,VALID,2.10234,
2012-01-16, 15:31:04,VALID,912.977,VALID,0,VALID,68.4811,VALID,605.968,VALID,24.6206,VALID,265,VALID,1.19922,
2012-01-16, 15:32:04,VALID,912.945,VALID,0,VALID,69.3807,VALID,328.233,VALID,24.6912,VALID,206,VALID,0.844922,
2012-01-16, 15:33:04,VALID,912.968,VALID,0,VALID,68.7022,VALID,342.2,VALID,24.8241,VALID,222,VALID,1.13437,
2012-01-16, 15:34:04,VALID,912.961,VALID,0,VALID,68.1305,VALID,491.651,VALID,25.0855,VALID,256,VALID,0.796875,
2012-01-16, 15:35:04,VALID,912.901,VALID,0,VALID,68.7785,VALID,320.604,VALID,25.1207,VALID,306,VALID,0.716797,
2012-01-16, 15:36:04,VALID,912.87,VALID,0,VALID,67.6959,VALID,351.225,VALID,25.236,VALID,244,VALID,0.5625,
2012-01-16, 15:37:04,VALID,912.878,VALID,0,VALID,67.1013,VALID,410.425,VALID,25.2945,VALID,270,VALID,1.87695,
2012-01-16, 15:38:04,VALID,912.866,VALID,0,VALID,68.0314,VALID,304.918,VALID,25.2379,VALID,286,VALID,0.791797,
2012-01-16, 15:39:04,VALID,912.88,VALID,0,VALID,67.1166,VALID,327.696,VALID,25.1402,VALID,261,VALID,1.58281,
2012-01-16, 15:40:04,VALID,912.888,VALID,0,VALID,67.7341,VALID,302.447,VALID,25.0017,VALID,215,VALID,1.54531,
2012-01-16, 15:41:04,VALID,912.937,VALID,0,VALID,69.617,VALID,478.113,VALID,24.984,VALID,247,VALID,1.26563,
2012-01-16, 15:42:04,VALID,912.915,VALID,0,VALID,70.8292,VALID,557.62,VALID,25.0426,VALID,217,VALID,0.939062,
2012-01-16, 15:43:04,VALID,912.894,VALID,0,VALID,67.2233,VALID,556.115,VALID,25.1226,VALID,254,VALID,2.60469,
2012-01-16, 15:44:04,VALID,912.832,VALID,0,VALID,69.335,VALID,254.85,VALID,25.1245,VALID,15,VALID,2.55,
2012-01-16, 15:45:04,VALID,912.826,VALID,0,VALID,67.5206,VALID,538.817,VALID,25.1207,VALID,274,VALID,1.67813,
2012-01-16, 15:46:04,VALID,912.783,VALID,0,VALID,67.6883,VALID,485.741,VALID,25.2007,VALID,358,VALID,0.991406,
2012-01-16, 15:47:04,VALID,912.808,VALID,0,VALID,67.6349,VALID,213.486,VALID,25.3922,VALID,353,VALID,0.970312,
2012-01-16, 15:48:04,VALID,912.834,VALID,0,VALID,69.9906,VALID,259.9,VALID,25.4703,VALID,332,VALID,0.735156,
2012-01-16, 15:49:04,VALID,912.852,VALID,0,VALID,67.1394,VALID,546.016,VALID,25.4136,VALID,259,VALID,1.26172,
2012-01-16, 15:50:04,VALID,912.795,VALID,0,VALID,69.1368,VALID,380.234,VALID,25.4331,VALID,219,VALID,0.858594,
2012-01-16, 15:51:04,VALID,912.77,VALID,0,VALID,68.0161,VALID,551.603,VALID,25.6284,VALID,181,VALID,0.259766,
2012-01-16, 15:52:04,VALID,912.802,VALID,0,VALID,65.1116,VALID,438.252,VALID,25.8823,VALID,240,VALID,0.718359,
2012-01-16, 15:53:04,VALID,912.788,VALID,0,VALID,65.691,VALID,601.885,VALID,26.0992,VALID,227,VALID,1.06289,
2012-01-16, 15:54:04,VALID,912.779,VALID,0,VALID,64.1282,VALID,588.563,VALID,26.2164,VALID,184,VALID,1.13281,
2012-01-16, 15:55:04,VALID,912.765,VALID,0,VALID,64.5093,VALID,566.752,VALID,26.3491,VALID,176,VALID,0.945703,
2012-01-16, 15:56:04,VALID,912.825,VALID,0,VALID,63.7623,VALID,532.801,VALID,26.601,VALID,215,VALID,1.02578,
2012-01-16, 15:57:04,VALID,912.786,VALID,0,VALID,61.9021,VALID,526.139,VALID,26.3296,VALID,263,VALID,1.72812,
2012-01-16, 15:58:04,VALID,912.774,VALID,0,VALID,64.1892,VALID,480.692,VALID,26.2359,VALID,234,VALID,2.27461,
2012-01-16, 15:59:04,VALID,912.787,VALID,0,VALID,62.7255,VALID,468.658,VALID,26.0346,VALID,258,VALID,2.74141,
2012-01-16, 16:00:04,VALID,912.724,VALID,0,VALID,63.8842,VALID,465.543,VALID,25.8178,VALID,269,VALID,1.13945,
2012-01-16, 16:01:04,VALID,912.696,VALID,0,VALID,65.7672,VALID,469.948,VALID,25.8081,VALID,242,VALID,1.08906,
2012-01-16, 16:02:04,VALID,912.789,VALID,0,VALID,65.6529,VALID,460.708,VALID,25.7026,VALID,259,VALID,1.78555,
2012-01-16, 16:03:04,VALID,912.802,VALID,0,VALID,65.752,VALID,450.931,VALID,25.7046,VALID,200,VALID,2.50938,
2012-01-16, 16:04:04,VALID,912.775,VALID,0,VALID,65.8968,VALID,447.385,VALID,25.7671,VALID,215,VALID,3.13984,
2012-01-16, 16:05:04,VALID,912.811,VALID,0,VALID,66.3237,VALID,445.129,VALID,25.7261,VALID,247,VALID,1.37773,
2012-01-16, 16:06:04,VALID,912.769,VALID,0,VALID,64.578,VALID,447.063,VALID,25.7105,VALID,247,VALID,2.5832,
2012-01-16, 16:07:04,VALID,912.809,VALID,0,VALID,63.3353,VALID,458.344,VALID,25.5347,VALID,250,VALID,2.86406,
2012-01-16, 16:08:04,VALID,912.807,VALID,0,VALID,64.6389,VALID,462.534,VALID,25.355,VALID,235,VALID,2.61641,
2012-01-16, 16:09:04,VALID,912.821,VALID,0,VALID,65.1802,VALID,466.724,VALID,25.3179,VALID,243,VALID,1.11289,
2012-01-16, 16:10:04,VALID,912.79,VALID,0,VALID,66.7887,VALID,453.831,VALID,25.2965,VALID,265,VALID,1.99258,
2012-01-16, 16:11:04,VALID,912.774,VALID,0,VALID,66.8192,VALID,428.26,VALID,25.2788,VALID,251,VALID,2.01289,
2012-01-16, 16:12:04,VALID,912.81,VALID,0,VALID,67.0937,VALID,436.963,VALID,25.2574,VALID,236,VALID,2.28555,
2012-01-16, 16:13:04,VALID,912.803,VALID,0,VALID,66.3695,VALID,416.657,VALID,25.2788,VALID,253,VALID,1.4957,
2012-01-16, 16:14:04,VALID,912.807,VALID,0,VALID,67.1928,VALID,450.286,VALID,25.4175,VALID,238,VALID,1.36563,
2012-01-16, 16:15:04,VALID,912.812,VALID,0,VALID,67.0174,VALID,444.591,VALID,25.2692,VALID,256,VALID,1.12109,
2012-01-16, 16:16:04,VALID,912.836,VALID,0,VALID,66.4,VALID,442.98,VALID,25.4917,VALID,246,VALID,2.14414,
2012-01-16, 16:17:04,VALID,912.813,VALID,0,VALID,65.7825,VALID,444.806,VALID,25.5737,VALID,260,VALID,0.818359,
2012-01-16, 16:18:04,VALID,912.815,VALID,0,VALID,68.161,VALID,441.905,VALID,25.607,VALID,243,VALID,1.48359,
2012-01-16, 16:19:04,VALID,912.876,VALID,0,VALID,66.1712,VALID,397.21,VALID,25.7241,VALID,241,VALID,2.37773,
2012-01-16, 16:20:04,VALID,912.822,VALID,0,VALID,66.278,VALID,405.913,VALID,25.3883,VALID,230,VALID,2.41133,
2012-01-16, 16:21:04,VALID,912.827,VALID,0,VALID,67.0632,VALID,445.881,VALID,25.3317,VALID,224,VALID,2.79766,
2012-01-16, 16:22:04,VALID,912.819,VALID,0,VALID,69.2816,VALID,442.228,VALID,25.3121,VALID,260,VALID,1.56094,
2012-01-16, 16:23:04,VALID,912.807,VALID,0,VALID,64.3035,VALID,424.5,VALID,25.4136,VALID,213,VALID,1.79062,
2012-01-16, 16:24:04,VALID,912.844,VALID,0,VALID,65.8663,VALID,439.327,VALID,25.4898,VALID,239,VALID,1.50312,
2012-01-16, 16:25:04,VALID,912.847,VALID,0,VALID,66.1941,VALID,416.872,VALID,25.646,VALID,238,VALID,1.42773,
2012-01-16, 16:26:04,VALID,912.861,VALID,0,VALID,65.4851,VALID,415.367,VALID,25.7417,VALID,239,VALID,1.10742,
2012-01-16, 16:27:04,VALID,912.889,VALID,0,VALID,65.569,VALID,430.087,VALID,26.019,VALID,235,VALID,0.733594,
2012-01-16, 16:28:04,VALID,912.814,VALID,0,VALID,62.7483,VALID,436.963,VALID,26.1147,VALID,190,VALID,1.77383,
2012-01-16, 16:29:04,VALID,912.884,VALID,0,VALID,63.1219,VALID,428.26,VALID,26.0952,VALID,202,VALID,1.55703,
2012-01-16, 16:30:04,VALID,912.872,VALID,0,VALID,64.6847,VALID,378.193,VALID,26.1773,VALID,209,VALID,1.2957,
2012-01-16, 16:31:04,VALID,912.867,VALID,0,VALID,63.564,VALID,361.969,VALID,26.1948,VALID,254,VALID,1.13984,
2012-01-16, 16:32:04,VALID,912.904,VALID,0,VALID,64.151,VALID,400.111,VALID,26.1908,VALID,228,VALID,1.13789,